Regional Weather Roundup
Issued by NWS

Home | Current Version | Previous Version | Text Only | Print | Product List | Glossary Off
Versions: 1 2 3 4 5 6 7 8 9 10 11 12 13 14 15 16 17 18 19 20 21 22 23 24 25 26 27 28 29 30 31 32 33 34 35 36 37 38 39 40 41 42 43 44 45 46 47 48 49 50

000
ASUS43 KTOP 301508
RWRKS

WEATHER ROUNDUP FOR KANSAS
NATIONAL WEATHER SERVICE GOODLAND KS
1000 AM CDT SAT JUL 30 2016

NOTE:  "FAIR" INDICATES FEW OR NO CLOUDS BELOW 12,000 FEET WITH NO
SIGNIFICANT WEATHER AND/OR OBSTRUCTIONS TO VISIBILITY.

KSZ001>006-013>018-027>032-041>047-301600-
NORTHWEST KANSAS

CITY           SKY/WX    TMP DP  RH WIND       PRES   REMARKS
GOODLAND       SUNNY     73  63  70 S9        30.02S
HAYS           CLOUDY    77  63  61 S12       30.00S
HILL CITY      SUNNY     79  67  66 S8        30.00S
RUSSELL        CLOUDY    80  65  59 S16       29.99F
$$

KSZ061>065-074>080-084>089-301600-
SOUTHWEST KANSAS

CITY           SKY/WX    TMP DP  RH WIND       PRES   REMARKS
DODGE CITY     MOSUNNY   75  67  76 S10       30.03R
ELKHART          N/A     74  58  57 S10         N/A
GARDEN CITY    SUNNY     75  67  76 SW9       30.01S
GREAT BEND     PTSUNNY   73  64  73 S10       30.00S
LIBERAL        CLOUDY    75  66  73 W10       30.04S
PRATT          CLOUDY    72  65  78 SE10      30.02F
$$

KSZ066>073-081>083-090>101-301600-
SOUTHEAST KANSAS

CITY           SKY/WX    TMP DP  RH WIND       PRES   REMARKS
CHANUTE        MOSUNNY   81  72  74 S5        30.02R
COFFEYVILLE    MOSUNNY   82  71  69 VRB5      30.01R
HUTCHINSON     PTSUNNY   77  68  73 S13       30.02S
MEDICINE LODGE   N/A     73  67  81 E8        30.00F
NEWTON         PTSUNNY   79  69  71 SW12      30.04S
PARSONS        SUNNY     81  71  71 CALM      30.03R
WICHITA INTL   CLOUDY    74  70  87 S7        30.02S
WICHITA JABRA  PTSUNNY   76  68  76 S8        30.03R
WICHITA MCCONL CLOUDY    74  70  87 S10       30.02S
WINFIELD       LGT RAIN  73  70  90 W5        30.05R
$$

KSZ007>012-019>026-033>040-048>060-102>105-301600-
NORTHEAST KANSAS

CITY           SKY/WX    TMP DP  RH WIND       PRES   REMARKS
CONCORDIA      PTSUNNY   76  66  71 SE8       30.01F
EMPORIA        MOSUNNY   77  67  71 SE9       30.03R
LAWRENCE       PTSUNNY   75  66  73 E6        30.04R
MANHATTAN      MOSUNNY   76  67  73 E6        30.02S
MARYSVILLE     CLOUDY    75  64  69 SE7       30.02F
OLATHE IND     PTSUNNY   75  65  70 SE5       30.05R
OLATHE EXE     MOSUNNY   75  63  66 CALM      30.04R
SALINA         SUNNY     82  70  66 S6        30.01F
TOPEKA BILLARD PTSUNNY   75  65  70 NE5       30.04R
TOPEKA FORBES  MOSUNNY   77  66  68 SE9       30.04R
$$



USA.gov is the U.S. government's official web portal to all federal, state and local government web resources and services.